When you browse on this site, cookies collect data to enhance your experience and personalize the content and advertising you see.
Visit our Privacy Policy to learn more. By continuing to use the site, you agree to this use of cookies and data.
  • In Czech Republic
  • List of Countries
  • For 7 days
  • Water Temperature
  • Weather Map
  • Weather Widgets
  • user-avatar
    Login

    Hourly Weather Erfurt

    Today, 31 May, Sunday

    Time Temperature Precipitation Wind Pressure Humidity
    00:00 +7°C° 0 mm 2 mps 749 mmHg 92%
    01:00 +8°C° 0 mm 1 mps 749 mmHg 92%
    02:00 +7°C° 0 mm 1 mps 748 mmHg 93%
    03:00 +7°C° 0 mm 1 mps 748 mmHg 94%
    04:00 +6°C° 0 mm 1 mps 748 mmHg 94%
    05:00 +8°C° 0 mm 1 mps 748 mmHg 91%
    06:00 +8°C° 0 mm 2 mps 749 mmHg 89%
    07:00 +9°C° 0 mm 2 mps 749 mmHg 85%
    08:00 +12°C° 0 mm 2 mps 749 mmHg 79%
    09:00 +12°C° 0 mm 3 mps 749 mmHg 72%
    10:00 +13°C° 0 mm 3 mps 749 mmHg 66%
    11:00 +14°C° 0 mm 3 mps 749 mmHg 65%
    12:00 +15°C° 0 mm 4 mps 749 mmHg 65%
    13:00 +17°C° 0 mm 4 mps 749 mmHg 64%
    14:00 +17°C° 0 mm 3 mps 748 mmHg 66%
    15:00 +17°C° 0 mm 3 mps 748 mmHg 69%
    16:00 +17°C° 0 mm 2 mps 748 mmHg 71%
    17:00 +17°C° 0 mm 2 mps 748 mmHg 74%
    18:00 +16°C° 0 mm 2 mps 748 mmHg 78%
    19:00 +16°C° 0 mm 2 mps 748 mmHg 81%
    20:00 +15°C° 0 mm 2 mps 749 mmHg 85%
    21:00 +13°C° 0 mm 2 mps 749 mmHg 88%
    22:00 +12°C° 0 mm 2 mps 749 mmHg 91%
    23:00 +10°C° 0 mm 2 mps 749 mmHg 92%

    Tomorrow, 1 June, Monday

    Time Temperature Precipitation Wind Pressure Humidity
    00:00 +10°C° 0 mm 1 mps 749 mmHg 93%
    01:00 +9°C° 0 mm 1 mps 750 mmHg 94%
    02:00 +9°C° 0 mm 1 mps 749 mmHg 94%
    03:00 +8°C° 0 mm 1 mps 749 mmHg 95%
    04:00 +8°C° 0 mm 1 mps 749 mmHg 96%
    05:00 +9°C° 0 mm 1 mps 749 mmHg 93%
    06:00 +11°C° 0 mm 1 mps 750 mmHg 90%
    07:00 +12°C° 0 mm 2 mps 750 mmHg 87%
    08:00 +14°C° 0 mm 2 mps 750 mmHg 82%
    09:00 +14°C° 0 mm 3 mps 750 mmHg 78%
    10:00 +17°C° 0 mm 3 mps 750 mmHg 73%
    11:00 +18°C° 0 mm 4 mps 750 mmHg 71%
    12:00 +18°C° 0 mm 4 mps 750 mmHg 69%
    13:00 +19°C° 0 mm 4 mps 749 mmHg 67%
    14:00 +19°C° 0 mm 4 mps 749 mmHg 66%
    15:00 +20°C° 0 mm 4 mps 749 mmHg 65%
    16:00 +20°C° 0 mm 4 mps 749 mmHg 63%
    17:00 +20°C° 0 mm 4 mps 748 mmHg 67%
    18:00 +19°C° 0 mm 3 mps 748 mmHg 71%
    19:00 +18°C° 0 mm 3 mps 748 mmHg 75%
    20:00 +16°C° 0 mm 3 mps 748 mmHg 78%
    21:00 +14°C° 0 mm 2 mps 749 mmHg 81%
    22:00 +12°C° 0 mm 2 mps 749 mmHg 83%
    23:00 +12°C° 0 mm 2 mps 749 mmHg 86%

    Day after tomorrow, 2 June, Tuesday

    Time Temperature Precipitation Wind Pressure Humidity
    00:00 +11°C° 0 mm 1 mps 749 mmHg 89%
    01:00 +10°C° 0 mm 1 mps 748 mmHg 92%
    02:00 +10°C° 0 mm 1 mps 748 mmHg 92%
    03:00 +9°C° 0 mm 1 mps 748 mmHg 93%
    04:00 +9°C° 0 mm 1 mps 748 mmHg 94%
    05:00 +10°C° 0 mm 1 mps 748 mmHg 90%
    06:00 +12°C° 0 mm 1 mps 748 mmHg 87%
    07:00 +13°C° 0 mm 1 mps 748 mmHg 83%
    08:00 +15°C° 0 mm 2 mps 748 mmHg 77%
    09:00 +17°C° 0 mm 2 mps 748 mmHg 71%
    10:00 +18°C° 0 mm 3 mps 747 mmHg 65%
    11:00 +19°C° 0 mm 3 mps 747 mmHg 62%
    12:00 +20°C° 0 mm 3 mps 747 mmHg 60%
    13:00 +21°C° 0 mm 3 mps 746 mmHg 57%
    14:00 +21°C° 0 mm 3 mps 746 mmHg 58%
    15:00 +21°C° 0 mm 3 mps 745 mmHg 59%
    16:00 +21°C° 0 mm 3 mps 744 mmHg 60%
    17:00 +20°C° 0 mm 3 mps 744 mmHg 65%
    18:00 +20°C° 0 mm 2 mps 744 mmHg 70%
    19:00 +19°C° 0 mm 2 mps 743 mmHg 75%
    20:00 +18°C° 0 mm 1 mps 743 mmHg 79%
    21:00 +15°C° 0 mm 1 mps 743 mmHg 82%
    22:00 +14°C° 0 mm 1 mps 743 mmHg 86%
    23:00 +13°C° 0 mm 1 mps 743 mmHg 86%

    3 June, Wednesday

    Time Temperature Precipitation Wind Pressure Humidity
    00:00 +13°C° 0 mm 1 mps 742 mmHg 85%
    01:00 +13°C° 0 mm 1 mps 742 mmHg 85%
    02:00 +13°C° 0 mm 1 mps 742 mmHg 85%
    03:00 +13°C° 0 mm 1 mps 741 mmHg 84%
    04:00 +12°C° 0 mm 1 mps 741 mmHg 84%
    05:00 +14°C° 0 mm 1 mps 741 mmHg 80%
    06:00 +15°C° 0 mm 1 mps 740 mmHg 76%
    07:00 +16°C° 0 mm 0 mps 740 mmHg 73%
    08:00 +19°C° 0 mm 1 mps 740 mmHg 67%
    09:00 +21°C° 0 mm 1 mps 740 mmHg 62%
    10:00 +22°C° 0 mm 1 mps 740 mmHg 57%
    11:00 +23°C° 0 mm 1 mps 739 mmHg 54%
    12:00 +24°C° 0 mm 1 mps 739 mmHg 52%
    13:00 +25°C° 0 mm 1 mps 739 mmHg 49%
    14:00 +25°C° 0 mm 1 mps 738 mmHg 50%
    15:00 +25°C° 0 mm 1 mps 738 mmHg 51%
    16:00 +25°C° 0 mm 1 mps 737 mmHg 51%
    17:00 +23°C° 0.2 mm 1 mps 737 mmHg 59%
    18:00 +22°C° 0.2 mm 1 mps 736 mmHg 68%
    19:00 +21°C° 0.2 mm 1 mps 736 mmHg 76%
    20:00 +20°C° 0.1 mm 1 mps 736 mmHg 78%
    21:00 +18°C° 0.1 mm 1 mps 736 mmHg 80%
    22:00 +16°C° 0.1 mm 1 mps 736 mmHg 83%
    23:00 +15°C° 0 mm 1 mps 736 mmHg 84%

    4 June, Thursday

    Time Temperature Precipitation Wind Pressure Humidity
    00:00 +15°C° 0 mm 1 mps 735 mmHg 85%
    01:00 +14°C° 0 mm 1 mps 735 mmHg 86%
    02:00 +14°C° 0 mm 1 mps 735 mmHg 86%
    03:00 +14°C° 0 mm 1 mps 734 mmHg 86%
    04:00 +14°C° 0 mm 1 mps 734 mmHg 86%
    05:00 +15°C° 0 mm 1 mps 734 mmHg 83%
    06:00 +16°C° 0 mm 2 mps 734 mmHg 81%
    07:00 +17°C° 0 mm 2 mps 733 mmHg 79%
    08:00 +17°C° 0.4 mm 3 mps 733 mmHg 82%
    09:00 +17°C° 0.4 mm 3 mps 733 mmHg 85%
    10:00 +17°C° 0.4 mm 3 mps 733 mmHg 88%
    11:00 +16°C° 2.1 mm 3 mps 733 mmHg 91%
    12:00 +16°C° 2.1 mm 3 mps 732 mmHg 93%
    13:00 +14°C° 2.1 mm 3 mps 732 mmHg 95%
    14:00 +15°C° 0.7 mm 4 mps 733 mmHg 91%
    15:00 +16°C° 0.7 mm 5 mps 733 mmHg 87%
    16:00 +17°C° 0.7 mm 6 mps 733 mmHg 83%
    17:00 +16°C° 0.1 mm 5 mps 733 mmHg 84%
    18:00 +15°C° 0.1 mm 4 mps 734 mmHg 85%
    19:00 +14°C° 0.1 mm 4 mps 734 mmHg 86%
    20:00 +13°C° 0 mm 3 mps 735 mmHg 88%
    21:00 +11°C° 0 mm 3 mps 735 mmHg 91%
    22:00 +10°C° 0 mm 2 mps 736 mmHg 94%
    23:00 +9°C° 0 mm 2 mps 736 mmHg 94%

    5 June, Friday

    Time Temperature Precipitation Wind Pressure Humidity
    00:00 +8°C° 0 mm 2 mps 736 mmHg 95%
    01:00 +8°C° 0 mm 2 mps 737 mmHg 95%
    02:00 +7°C° 0 mm 2 mps 737 mmHg 95%
    03:00 +7°C° 0 mm 2 mps 737 mmHg 95%
    04:00 +7°C° 0 mm 2 mps 737 mmHg 95%
    05:00 +8°C° 0 mm 2 mps 737 mmHg 89%
    06:00 +9°C° 0 mm 2 mps 738 mmHg 84%
    07:00 +10°C° 0 mm 3 mps 738 mmHg 79%
    08:00 +11°C° 0 mm 3 mps 738 mmHg 72%
    09:00 +13°C° 0 mm 2 mps 738 mmHg 64%
    10:00 +15°C° 0 mm 2 mps 738 mmHg 57%
    11:00 +16°C° 0 mm 2 mps 738 mmHg 55%
    12:00 +17°C° 0 mm 3 mps 738 mmHg 53%
    13:00 +18°C° 0 mm 3 mps 737 mmHg 51%
    14:00 +19°C° 0 mm 3 mps 737 mmHg 51%
    15:00 +20°C° 0 mm 3 mps 737 mmHg 51%
    16:00 +20°C° 0 mm 2 mps 736 mmHg 51%
    17:00 +20°C° 0 mm 2 mps 736 mmHg 57%
    18:00 +20°C° 0 mm 1 mps 736 mmHg 63%
    19:00 +19°C° 0 mm 1 mps 736 mmHg 69%
    20:00 +16°C° 0 mm 1 mps 736 mmHg 73%
    21:00 +15°C° 0 mm 1 mps 736 mmHg 77%
    22:00 +13°C° 0 mm 1 mps 736 mmHg 80%
    23:00 +12°C° 0 mm 1 mps 736 mmHg 83%
    Show more